This is the latest recevied weather packets stored in our database for station/object W3BRL. If no packets are shown the sender has not sent any weather packets the latest 10 day(s).
| Time | Temp. | Humidity | Pressure | Rain* | Wind** | Luminosity | Snow |
|---|---|---|---|---|---|---|---|
| 1777308315 | 20° C | 34% | 1019.2 hPa | 0 mm | - | 743 W/m² | - |
| 1777308009 | 19.44° C | 34% | 1019 hPa | 0 mm | - | 717 W/m² | - |
| 1777307708 | 20° C | 33% | 1018.9 hPa | 0 mm | - | 741 W/m² | - |
| 1777307404 | 19.44° C | 36% | 1018.9 hPa | 0 mm | - | 795 W/m² | - |
| 1777307102 | 19.44° C | 33% | 1019 hPa | 0 mm | - | 811 W/m² | - |
| 1777306799 | 19.44° C | 34% | 1019.2 hPa | 0 mm | - | 791 W/m² | - |
| 1777306496 | 18.89° C | 35% | 1019.1 hPa | 0 mm | - | 782 W/m² | - |
| 1777306192 | 19.44° C | 34% | 1019.1 hPa | 0 mm | - | 782 W/m² | - |
| 1777305886 | 18.89° C | 35% | 1019.2 hPa | 0 mm | - | 705 W/m² | - |
| 1777305583 | 18.89° C | 33% | 1019.4 hPa | 0 mm | - | 783 W/m² | - |
| 1777305280 | 18.89° C | 36% | 1019.5 hPa | 0 mm | - | 762 W/m² | - |
| 1777304978 | 17.78° C | 35% | 1019.5 hPa | 0 mm | - | 747 W/m² | - |
| 1777304675 | 18.33° C | 35% | 1019.4 hPa | 0 mm | - | 703 W/m² | - |
| 1777304372 | 18.33° C | 35% | 1019.5 hPa | 0 mm | - | 639 W/m² | - |
| 1777304069 | 18.33° C | 36% | 1019.6 hPa | 0 mm | - | 643 W/m² | - |
| 1777303766 | 18.33° C | 36% | 1019.6 hPa | 0 mm | - | 652 W/m² | - |
| 1777303463 | 17.78° C | 37% | 1019.8 hPa | 0 mm | - | 681 W/m² | - |
| 1777303160 | 17.78° C | 39% | 1019.7 hPa | 0 mm | - | 722 W/m² | - |
| 1777302859 | 17.78° C | 40% | 1019.6 hPa | 0 mm | - | 699 W/m² | - |
| 1777302555 | 17.78° C | 41% | 1019.6 hPa | 0 mm | - | 700 W/m² | - |
| 1777302254 | 17.22° C | 41% | 1019.4 hPa | 0 mm | - | 703 W/m² | - |
| 1777301951 | 17.22° C | 42% | 1019.5 hPa | 0 mm | - | 682 W/m² | - |
| 1777301649 | 17.22° C | 42% | 1019.3 hPa | 0 mm | - | 681 W/m² | - |
| 1777301345 | 16.67° C | 46% | 1019.5 hPa | 0 mm | - | 670 W/m² | - |
| 1777301042 | 16.11° C | 46% | 1019.6 hPa | 0 mm | - | 658 W/m² | - |
* Rain latest hour (hover to see other rain measurements)
** Current wind speed in m/s (hover to see current wind gust speed)